TimeAKDT,TemperatureF,Dew PointF,Humidity,Sea Level PressureIn,VisibilityMPH,Wind Direction,Wind SpeedMPH,Gust SpeedMPH,PrecipitationIn,Events,Conditions,WindDirDegrees,DateUTC
12:53 AM,32.0,25.0,75,29.86,10.0,West,4.6,-,N/A,,Overcast,260,2013-03-23 08:53:00
1:22 AM,32.0,26.6,80,29.85,10.0,Calm,Calm,-,N/A,,Overcast,0,2013-03-23 09:22:00
1:46 AM,32.0,26.6,80,29.85,10.0,West,4.6,-,N/A,,Overcast,270,2013-03-23 09:46:00
1:53 AM,32.0,26.1,79,29.85,10.0,West,3.5,-,N/A,,Overcast,270,2013-03-23 09:53:00
2:53 AM,32.0,24.1,73,29.84,10.0,West,3.5,-,N/A,,Mostly Cloudy,270,2013-03-23 10:53:00
3:28 AM,32.0,24.8,75,29.83,10.0,West,3.5,-,N/A,,Overcast,270,2013-03-23 11:28:00
3:53 AM,32.0,24.1,73,29.83,10.0,West,3.5,-,N/A,,Overcast,270,2013-03-23 11:53:00
4:53 AM,32.0,24.1,73,29.83,10.0,Calm,Calm,-,N/A,,Overcast,0,2013-03-23 12:53:00
5:40 AM,30.2,26.6,86,29.81,10.0,Calm,Calm,-,N/A,,Overcast,0,2013-03-23 13:40:00
5:53 AM,30.0,26.1,85,29.82,10.0,Calm,Calm,-,N/A,,Overcast,0,2013-03-23 13:53:00
6:53 AM,32.0,24.1,73,29.81,10.0,West,4.6,-,N/A,,Overcast,270,2013-03-23 14:53:00
7:53 AM,32.0,21.9,66,29.82,10.0,West,6.9,-,N/A,,Overcast,270,2013-03-23 15:53:00
8:53 AM,32.0,23.0,69,29.83,10.0,West,9.2,-,N/A,,Overcast,260,2013-03-23 16:53:00
9:53 AM,32.0,23.0,69,29.84,10.0,West,8.1,-,N/A,,Mostly Cloudy,270,2013-03-23 17:53:00
10:42 AM,32.0,23.0,69,29.84,10.0,West,6.9,-,N/A,,Overcast,270,2013-03-23 18:42:00
10:53 AM,32.0,23.0,69,29.85,10.0,WSW,9.2,-,N/A,,Mostly Cloudy,250,2013-03-23 18:53:00
11:53 AM,33.1,23.0,66,29.85,10.0,SW,11.5,-,N/A,,Mostly Cloudy,230,2013-03-23 19:53:00
12:51 PM,33.8,24.8,70,29.84,10.0,SW,11.5,-,N/A,,Scattered Clouds,230,2013-03-23 20:51:00
12:53 PM,34.0,24.1,67,29.84,10.0,WSW,13.8,-,N/A,,Scattered Clouds,240,2013-03-23 20:53:00
1:53 PM,33.1,23.0,66,29.85,10.0,West,9.2,-,N/A,,Scattered Clouds,260,2013-03-23 21:53:00
2:53 PM,33.1,21.9,64,29.84,10.0,West,9.2,-,N/A,,Mostly Cloudy,260,2013-03-23 22:53:00
3:53 PM,34.0,21.0,59,29.83,10.0,WSW,9.2,-,N/A,,Scattered Clouds,250,2013-03-23 23:53:00
4:53 PM,35.1,21.0,57,29.83,10.0,WSW,8.1,-,N/A,,Mostly Cloudy,240,2013-03-24 00:53:00
5:53 PM,34.0,21.9,61,29.82,10.0,SW,6.9,-,N/A,,Mostly Cloudy,230,2013-03-24 01:53:00
6:53 PM,34.0,21.0,59,29.82,10.0,West,5.8,-,N/A,,Mostly Cloudy,260,2013-03-24 02:53:00
7:53 PM,33.1,21.0,61,29.81,10.0,WSW,5.8,-,N/A,,Mostly Cloudy,240,2013-03-24 03:53:00
8:53 PM,32.0,21.9,66,29.81,10.0,Calm,Calm,-,N/A,,Overcast,0,2013-03-24 04:53:00
9:53 PM,32.0,21.9,66,29.81,10.0,Calm,Calm,-,N/A,,Overcast,0,2013-03-24 05:53:00
10:53 PM,32.0,21.9,66,29.81,10.0,Calm,Calm,-,N/A,,Overcast,0,2013-03-24 06:53:00
11:53 PM,32.0,23.0,69,29.81,10.0,ENE,4.6,-,N/A,,Overcast,60,2013-03-24 07:53:00